Location: Newark
(52.2090°N, 4.1550°W)
Time: 08:24:53
(UTC+00:00)

Explorer 7 - Pass Details

Date: 24 September 2019
Orbit: 485 x 680 km, 50.3° (Epoch: 17 October)

Event Time Altitude Azimuth Distance (km) Brightness Sun altitude
Exits shadow 03:56:27 11° 175° (S) 2,025 9.5 -19.8°
Drops below altitude 10° 03:56:47 10° 172° (S) 2,111 9.6 -19.8°
Sets 03:59:39 0° 156° (SSE) 3,023 10.6 -19.4°
